ACH2055 DGAA-LEIB

Flight info

Callsign ACH2055
Flight time N/A
Altitude 33000
Route LITEX1D LITEX UA603 BAKAB UG859 ROFER UM608 BAY UA29 SADAF N856 INSUB
Aircraft B738/M-SDE2E3FGHIRWXY/LB1

Departure

Time 2026-04-26 10:55
Airport Kotoka International Airport (DGAA)

Arrival

Time N/A
Airport Ibiza Airport (LEIB)
Time Latitude Longitude Altitude Speed Heading
2026-04-26 10:53 5.61232 -0.16638 209 ft 23 kts 21°
2026-04-26 10:53 5.61379 -0.16580 207 ft 25 kts 24°
2026-04-26 10:53 5.61511 -0.16524 212 ft 14 kts 24°
2026-04-26 10:54 5.61470 -0.16347 204 ft 29 kts 180°
2026-04-26 10:54 5.60998 -0.16525 206 ft 113 kts 202°
2026-04-26 10:54 5.60048 -0.16915 256 ft 177 kts 201°
2026-04-26 10:54 5.58811 -0.17420 735 ft 209 kts 200°
2026-04-26 10:55 5.57461 -0.17941 1732 ft 197 kts 197°
2026-04-26 10:55 5.56125 -0.18073 2641 ft 201 kts 164°
2026-04-26 10:55 5.54907 -0.17273 2865 ft 229 kts 129°
2026-04-26 10:55 5.54245 -0.15714 3163 ft 258 kts 98°
2026-04-26 10:56 5.54432 -0.13918 3902 ft 268 kts 70°
2026-04-26 10:56 5.55331 -0.12272 4897 ft 267 kts 61°
2026-04-26 10:56 5.56269 -0.10661 5726 ft 271 kts 62°
2026-04-26 10:56 5.57425 -0.09154 6552 ft 278 kts 39°
2026-04-26 10:57 5.59096 -0.08170 7426 ft 280 kts 26°
2026-04-26 10:57 5.60910 -0.07409 8221 ft 283 kts 23°
2026-04-26 10:57 5.62742 -0.06696 9082 ft 285 kts 22°
2026-04-26 10:57 5.64594 -0.05971 9934 ft 286 kts 23°
2026-04-26 10:58 5.66480 -0.05219 10501 ft 298 kts 23°
2026-04-26 10:58 5.68467 -0.04412 10674 ft 323 kts 23°
2026-04-26 10:58 5.70631 -0.03525 10832 ft 345 kts 23°
2026-04-26 10:58 5.72928 -0.02581 10981 ft 365 kts 23°
2026-04-26 10:59 5.75335 -0.01590 11233 ft 379 kts 23°
2026-04-26 10:59 5.77766 -0.00590 11726 ft 384 kts 22°
2026-04-26 10:59 5.80236 0.00428 12438 ft 382 kts 22°
2026-04-26 10:59 5.82708 0.01446 13034 ft 385 kts 22°
2026-04-26 11:00 5.85207 0.02475 13510 ft 390 kts 22°
2026-04-26 11:00 5.87705 0.03505 14013 ft 393 kts 21°
2026-04-26 11:00 5.90264 0.04560 14419 ft 398 kts 21°
2026-04-26 11:00 5.92843 0.05578 15008 ft 397 kts 16°
2026-04-26 11:01 5.95583 0.05925 15497 ft 398 kts 356°
2026-04-26 11:01 5.98310 0.05494 15853 ft 404 kts 346°
2026-04-26 11:01 6.01057 0.04817 16278 ft 407 kts 345°
2026-04-26 11:01 6.03822 0.04103 16658 ft 411 kts 345°
2026-04-26 11:02 6.06585 0.03389 17076 ft 414 kts 345°
2026-04-26 11:02 6.09384 0.02677 17587 ft 414 kts 345°
2026-04-26 11:02 6.12215 0.01968 17967 ft 418 kts 345°
2026-04-26 11:02 6.15057 0.01265 18298 ft 423 kts 345°
2026-04-26 11:03 6.17895 0.00569 18649 ft 425 kts 345°
2026-04-26 11:03 6.20781 -0.00135 19016 ft 426 kts 345°
2026-04-26 11:03 6.23684 -0.00844 19277 ft 431 kts 345°
2026-04-26 11:03 6.26609 -0.01556 19627 ft 432 kts 345°
2026-04-26 11:04 6.29499 -0.02259 20027 ft 433 kts 345°
2026-04-26 11:04 6.32448 -0.02977 20327 ft 436 kts 345°
2026-04-26 11:04 6.35418 -0.03702 20583 ft 439 kts 345°
2026-04-26 11:04 6.38387 -0.04426 20955 ft 439 kts 345°
2026-04-26 11:05 6.41336 -0.05146 21191 ft 443 kts 345°
2026-04-26 11:05 6.44369 -0.05887 21425 ft 446 kts 345°
2026-04-26 11:05 6.47387 -0.06623 21790 ft 446 kts 345°
2026-04-26 11:05 6.50393 -0.07357 22045 ft 449 kts 345°
2026-04-26 11:06 6.53449 -0.08103 22282 ft 452 kts 345°
2026-04-26 11:06 6.56513 -0.08850 22549 ft 454 kts 345°
2026-04-26 11:06 6.59597 -0.09603 22822 ft 455 kts 345°
2026-04-26 11:06 6.62691 -0.10354 23083 ft 457 kts 346°
2026-04-26 11:07 6.65838 -0.10676 23277 ft 463 kts
2026-04-26 11:07 6.69067 -0.10495 23566 ft 464 kts
2026-04-26 11:07 6.72306 -0.10291 23757 ft 465 kts
2026-04-26 11:07 6.75548 -0.10090 23946 ft 467 kts
2026-04-26 11:08 6.78809 -0.09901 24145 ft 469 kts
2026-04-26 11:08 6.82063 -0.09724 24353 ft 470 kts
2026-04-26 11:08 6.85311 -0.09556 24539 ft 471 kts
2026-04-26 11:08 6.88594 -0.09392 24733 ft 472 kts
2026-04-26 11:09 6.91889 -0.09230 24911 ft 474 kts
2026-04-26 11:09 6.95184 -0.09069 25084 ft 475 kts
2026-04-26 11:09 6.98501 -0.08907 25263 ft 476 kts
2026-04-26 11:09 7.01781 -0.08746 25425 ft 478 kts
2026-04-26 11:10 7.05153 -0.08581 25595 ft 479 kts
2026-04-26 11:10 7.08490 -0.08416 25760 ft 481 kts
2026-04-26 11:10 7.11793 -0.08255 25918 ft 482 kts
2026-04-26 11:10 7.15148 -0.08089 26071 ft 483 kts
2026-04-26 11:11 7.18520 -0.07922 26223 ft 485 kts
2026-04-26 11:11 7.21912 -0.07754 26383 ft 486 kts
2026-04-26 11:11 7.25264 -0.07590 26522 ft 487 kts
2026-04-26 11:11 7.28669 -0.07422 26670 ft 488 kts
2026-04-26 11:12 7.32074 -0.07254 26811 ft 489 kts
2026-04-26 11:12 7.35485 -0.07087 26953 ft 491 kts
2026-04-26 11:12 7.38869 -0.06921 27088 ft 492 kts
2026-04-26 11:12 7.42298 -0.06753 27258 ft 492 kts
2026-04-26 11:13 7.45688 -0.06587 27464 ft 491 kts
2026-04-26 11:13 7.49111 -0.06418 27707 ft 491 kts
2026-04-26 11:13 7.52536 -0.06250 27920 ft 490 kts
2026-04-26 11:13 7.55954 -0.06081 28122 ft 491 kts
2026-04-26 11:14 7.59341 -0.05915 28318 ft 491 kts
2026-04-26 11:14 7.62768 -0.05746 28519 ft 491 kts
2026-04-26 11:14 7.66136 -0.05579 28706 ft 491 kts
2026-04-26 11:14 7.69564 -0.05410 28935 ft 491 kts
2026-04-26 11:15 7.72995 -0.05241 29176 ft 490 kts
2026-04-26 11:15 7.76368 -0.05074 29386 ft 490 kts
2026-04-26 11:15 7.79782 -0.04906 29639 ft 490 kts
2026-04-26 11:15 7.83202 -0.04737 29875 ft 489 kts
2026-04-26 11:16 7.86610 -0.04568 30109 ft 489 kts
2026-04-26 11:16 7.89984 -0.04401 30285 ft 489 kts
2026-04-26 11:16 7.93406 -0.04232 30507 ft 489 kts
2026-04-26 11:16 7.96766 -0.04066 30694 ft 489 kts
2026-04-26 11:17 8.00152 -0.03898 31046 ft 484 kts
2026-04-26 11:17 8.03524 -0.03732 31372 ft 482 kts
2026-04-26 11:17 8.06885 -0.03565 31543 ft 483 kts
2026-04-26 11:17 8.10213 -0.03401 31691 ft 485 kts
2026-04-26 11:18 8.13600 -0.03233 31902 ft 485 kts
2026-04-26 11:18 8.16976 -0.03065 32217 ft 482 kts
2026-04-26 11:18 8.20290 -0.02901 32440 ft 482 kts
2026-04-26 11:18 8.23651 -0.02733 32664 ft 482 kts
2026-04-26 11:19 8.27013 -0.02565 32883 ft 483 kts
2026-04-26 11:19 8.30370 -0.02398 33099 ft 483 kts
2026-04-26 11:19 8.33721 -0.02231 33364 ft 482 kts
2026-04-26 11:19 8.37094 -0.02065 33560 ft 483 kts
2026-04-26 11:20 8.40405 -0.01902 33773 ft 483 kts
2026-04-26 11:20 8.42685 -0.01790 33912 ft 483 kts
2026-04-26 11:20 8.47130 -0.01570 34290 ft 480 kts
2026-04-26 11:20 8.50471 -0.01404 34459 ft 481 kts
2026-04-26 11:21 8.53825 -0.01236 34672 ft 481 kts
2026-04-26 11:21 8.57133 -0.01071 34850 ft 481 kts
2026-04-26 11:21 8.60487 -0.00904 35054 ft 481 kts
2026-04-26 11:21 8.63846 -0.00738 35311 ft 480 kts
2026-04-26 11:22 8.67185 -0.00644 35500 ft 480 kts
2026-04-26 11:22 8.70490 -0.00655 35707 ft 480 kts
2026-04-26 11:22 8.73842 -0.00710 35923 ft 478 kts 359°
2026-04-26 11:22 8.77169 -0.00773 35909 ft 477 kts 360°
2026-04-26 11:23 8.83780 -0.00873 35934 ft 479 kts 360°
2026-04-26 11:23 8.90485 -0.00939 35931 ft 481 kts
2026-04-26 11:24 8.97176 -0.00993 35925 ft 483 kts
2026-04-26 11:24 9.03883 -0.01048 35923 ft 483 kts
2026-04-26 11:25 9.10617 -0.01105 35916 ft 483 kts 360°
2026-04-26 11:25 9.17340 -0.01159 35919 ft 481 kts
2026-04-26 11:26 9.24009 -0.01216 35910 ft 480 kts
2026-04-26 11:26 9.30644 -0.01264 35912 ft 478 kts
2026-04-26 11:27 9.37300 -0.01308 35908 ft 477 kts
2026-04-26 11:27 9.43945 -0.01350 35911 ft 476 kts
2026-04-26 11:28 9.50535 -0.01391 35923 ft 475 kts
2026-04-26 11:28 9.57176 -0.01444 35913 ft 475 kts
2026-04-26 11:29 9.63764 -0.01515 35913 ft 475 kts 359°
2026-04-26 11:29 9.70360 -0.01586 35903 ft 475 kts 360°
2026-04-26 11:30 9.75879 -0.01642 35907 ft 475 kts
2026-04-26 11:30 9.83592 -0.01720 35906 ft 476 kts 359°
2026-04-26 11:31 9.90237 -0.01785 35909 ft 476 kts 359°
2026-04-26 11:31 9.96851 -0.01850 35905 ft 475 kts 359°
2026-04-26 11:32 10.03453 -0.01916 35904 ft 475 kts 359°
2026-04-26 11:32 10.10087 -0.01981 35901 ft 475 kts 359°
2026-04-26 11:33 10.16674 -0.02045 35898 ft 475 kts 359°
2026-04-26 11:33 10.23256 -0.02110 35900 ft 474 kts 359°
2026-04-26 11:34 10.29887 -0.02175 35903 ft 474 kts 359°
2026-04-26 11:34 10.36479 -0.02239 35905 ft 474 kts 359°
2026-04-26 11:35 10.43046 -0.02303 35897 ft 474 kts 359°
2026-04-26 11:35 10.48556 -0.02356 35894 ft 474 kts 359°
2026-04-26 11:36 10.56254 -0.02430 35894 ft 475 kts 359°
2026-04-26 11:36 10.62878 -0.02492 35896 ft 474 kts 358°
2026-04-26 11:37 10.69449 -0.02494 35895 ft 474 kts
2026-04-26 11:37 10.76061 -0.02421 35885 ft 474 kts 360°
2026-04-26 11:38 10.82622 -0.02352 35884 ft 473 kts 359°
2026-04-26 11:38 10.88117 -0.02305 35880 ft 473 kts 359°
2026-04-26 11:39 10.94674 -0.02248 35881 ft 472 kts 359°
2026-04-26 11:39 11.01277 -0.02195 35889 ft 472 kts 359°
2026-04-26 11:40 11.07823 -0.02149 35885 ft 472 kts 359°
2026-04-26 11:40 11.14404 -0.02102 35884 ft 472 kts 359°
2026-04-26 11:42 11.40711 -0.01905 35875 ft 472 kts 358°
2026-04-26 11:43 11.47269 -0.01849 35880 ft 472 kts 357°
2026-04-26 11:43 11.53797 -0.01799 35874 ft 472 kts 359°
2026-04-26 11:44 11.60380 -0.01748 35873 ft 471 kts 359°
2026-04-26 11:44 11.66960 -0.01699 35881 ft 471 kts 359°
2026-04-26 11:45 11.73515 -0.01651 35867 ft 472 kts 357°
2026-04-26 11:45 11.80081 -0.01601 35867 ft 473 kts 359°
2026-04-26 11:46 11.86664 -0.01550 35879 ft 474 kts 359°
2026-04-26 11:46 11.93285 -0.01496 35870 ft 476 kts 358°
2026-04-26 11:47 11.99927 -0.01445 35866 ft 477 kts 359°
2026-04-26 11:47 12.06542 -0.01393 35869 ft 477 kts 359°
2026-04-26 11:48 12.13196 -0.01342 35874 ft 478 kts 359°
2026-04-26 11:48 12.19837 -0.01289 35867 ft 479 kts 358°
2026-04-26 11:49 12.26509 -0.01235 35875 ft 478 kts 358°
2026-04-26 11:49 12.33150 -0.01184 35878 ft 478 kts 358°
2026-04-26 11:50 12.39819 -0.01135 35860 ft 478 kts 358°
2026-04-26 11:50 12.46440 -0.01083 35862 ft 478 kts 358°
2026-04-26 11:51 12.53088 -0.01031 35865 ft 479 kts 358°
2026-04-26 11:51 12.59771 -0.00977 35867 ft 480 kts 358°
2026-04-26 11:52 12.66478 -0.00922 35861 ft 480 kts 358°
2026-04-26 11:52 12.73141 -0.00869 35861 ft 481 kts 358°
2026-04-26 11:53 12.79807 -0.00817 35872 ft 480 kts 358°
2026-04-26 11:54 12.89844 -0.00837 35856 ft 479 kts 357°
2026-04-26 11:54 12.96496 -0.00896 35854 ft 478 kts 357°
2026-04-26 11:55 13.03169 -0.00943 35854 ft 478 kts 357°
2026-04-26 11:55 13.09789 -0.00982 35850 ft 478 kts 358°
2026-04-26 11:56 13.16450 -0.01020 35853 ft 477 kts 357°
2026-04-26 11:56 13.23062 -0.01057 35838 ft 477 kts 357°
2026-04-26 11:57 13.29694 -0.01095 35843 ft 477 kts 357°
2026-04-26 11:57 13.36356 -0.01133 35837 ft 477 kts 357°
2026-04-26 11:58 13.43014 -0.01169 35838 ft 477 kts 357°
2026-04-26 11:58 13.49616 -0.01202 35839 ft 477 kts 357°
2026-04-26 11:59 13.56257 -0.01233 35834 ft 476 kts 357°
2026-04-26 11:59 13.62843 -0.01264 35825 ft 475 kts 357°
2026-04-26 12:00 13.69454 -0.01295 35830 ft 474 kts 357°
2026-04-26 12:00 13.76051 -0.01326 35833 ft 473 kts 357°
2026-04-26 12:01 13.82604 -0.01356 35828 ft 473 kts 357°
2026-04-26 12:01 13.89198 -0.01385 35828 ft 473 kts 357°
2026-04-26 12:02 13.95784 -0.01418 35818 ft 473 kts 357°
2026-04-26 12:02 14.02345 -0.01460 35815 ft 473 kts 356°
2026-04-26 12:03 14.07824 -0.01495 35818 ft 473 kts 357°